2026-052D

Last updated on Sun Apr 12 2026 00:02:07 GMT+0000 (Coordinated Universal Time)

1 68201U 26052D 26101.51806042 .00003217 00000+0 19806-3 0 9997 2 68201 97.5343 177.3572 0011744 172.1155 188.0261 15.10655875 3980
UTC large
Height (km)
Speed (km/s)
/
Latitude / Longitude
Inclination (degrees)
Orbital Period (minutes)
Azimuth
Elevation
Range (km)
Doppler Factor

Next 0 passes for location: London (51.5072 / 0.1276)

Sorry there are no passes over London.
2026-052D